Hourly Weather Lida

Today, 20 September, Sunday

Time Temperature Precipitation Wind Pressure Humidity
00:00 +10°C° 0 mm 2 mps 753 mmHg 93%
01:00 +10°C° 0 mm 2 mps 753 mmHg 92%
02:00 +9°C° 0 mm 2 mps 753 mmHg 92%
03:00 +8°C° 0 mm 2 mps 753 mmHg 91%
04:00 +7°C° 0 mm 2 mps 753 mmHg 90%
05:00 +8°C° 0 mm 1 mps 753 mmHg 89%
06:00 +9°C° 0 mm 1 mps 754 mmHg 85%
07:00 +9°C° 0 mm 1 mps 754 mmHg 82%
08:00 +10°C° 0 mm 1 mps 754 mmHg 78%
09:00 +12°C° 0 mm 1 mps 754 mmHg 71%
10:00 +13°C° 0 mm 1 mps 754 mmHg 64%
11:00 +15°C° 0 mm 1 mps 754 mmHg 57%
12:00 +16°C° 0 mm 1 mps 754 mmHg 55%
13:00 +16°C° 0 mm 1 mps 754 mmHg 52%
14:00 +18°C° 0 mm 1 mps 754 mmHg 50%
15:00 +18°C° 0 mm 1 mps 753 mmHg 54%
16:00 +16°C° 0 mm 1 mps 753 mmHg 58%
17:00 +16°C° 0 mm 1 mps 752 mmHg 62%
18:00 +14°C° 0 mm 1 mps 753 mmHg 65%
19:00 +13°C° 0 mm 1 mps 753 mmHg 69%
20:00 +11°C° 0 mm 1 mps 753 mmHg 73%
21:00 +11°C° 0 mm 1 mps 753 mmHg 74%
22:00 +11°C° 0 mm 1 mps 753 mmHg 76%
23:00 +10°C° 0 mm 1 mps 753 mmHg 78%

Tomorrow, 21 September, Monday

Time Temperature Precipitation Wind Pressure Humidity
00:00 +9°C° 0 mm 2 mps 753 mmHg 80%
01:00 +9°C° 0 mm 2 mps 753 mmHg 83%
02:00 +9°C° 0 mm 2 mps 753 mmHg 85%
03:00 +9°C° 0 mm 2 mps 753 mmHg 88%
04:00 +9°C° 0 mm 2 mps 752 mmHg 90%
05:00 +9°C° 0 mm 2 mps 752 mmHg 92%
06:00 +10°C° 0 mm 2 mps 752 mmHg 89%
07:00 +12°C° 0 mm 2 mps 752 mmHg 86%
08:00 +13°C° 0 mm 2 mps 753 mmHg 83%
09:00 +15°C° 0 mm 2 mps 752 mmHg 77%
10:00 +17°C° 0 mm 3 mps 752 mmHg 70%
11:00 +18°C° 0 mm 3 mps 752 mmHg 63%
12:00 +19°C° 0 mm 3 mps 752 mmHg 61%
13:00 +20°C° 0 mm 3 mps 752 mmHg 59%
14:00 +20°C° 0 mm 3 mps 751 mmHg 57%
15:00 +20°C° 0 mm 3 mps 751 mmHg 60%
16:00 +19°C° 0 mm 2 mps 751 mmHg 63%
17:00 +19°C° 0 mm 2 mps 750 mmHg 67%
18:00 +17°C° 0 mm 2 mps 750 mmHg 71%
19:00 +16°C° 0 mm 3 mps 750 mmHg 75%
20:00 +13°C° 0 mm 3 mps 750 mmHg 79%
21:00 +12°C° 0 mm 3 mps 750 mmHg 81%
22:00 +13°C° 0 mm 2 mps 750 mmHg 82%
23:00 +12°C° 0 mm 2 mps 750 mmHg 83%

Day after tomorrow, 22 September, Tuesday

Time Temperature Precipitation Wind Pressure Humidity
00:00 +12°C° 0 mm 2 mps 750 mmHg 84%
01:00 +12°C° 0 mm 2 mps 750 mmHg 85%
02:00 +12°C° 0 mm 2 mps 749 mmHg 86%
03:00 +10°C° 0 mm 2 mps 749 mmHg 87%
04:00 +10°C° 0 mm 2 mps 749 mmHg 88%
05:00 +10°C° 0 mm 2 mps 749 mmHg 90%
06:00 +12°C° 0 mm 2 mps 749 mmHg 87%
07:00 +13°C° 0 mm 2 mps 749 mmHg 84%
08:00 +14°C° 0 mm 2 mps 749 mmHg 82%
09:00 +16°C° 0 mm 3 mps 749 mmHg 76%
10:00 +18°C° 0 mm 3 mps 749 mmHg 70%
11:00 +20°C° 0 mm 3 mps 749 mmHg 64%
12:00 +21°C° 0 mm 3 mps 749 mmHg 61%
13:00 +22°C° 0 mm 3 mps 749 mmHg 58%
14:00 +24°C° 0 mm 3 mps 748 mmHg 54%
15:00 +22°C° 0 mm 3 mps 748 mmHg 58%
16:00 +21°C° 0 mm 2 mps 748 mmHg 62%
17:00 +21°C° 0 mm 2 mps 747 mmHg 65%
18:00 +19°C° 0 mm 2 mps 747 mmHg 69%
19:00 +18°C° 0 mm 2 mps 747 mmHg 73%
20:00 +16°C° 0 mm 2 mps 747 mmHg 77%
21:00 +16°C° 0 mm 2 mps 747 mmHg 79%
22:00 +15°C° 0 mm 2 mps 747 mmHg 81%
23:00 +15°C° 0 mm 2 mps 747 mmHg 83%

23 September, Wednesday

Time Temperature Precipitation Wind Pressure Humidity
00:00 +14°C° 0 mm 2 mps 747 mmHg 85%
01:00 +14°C° 0 mm 2 mps 747 mmHg 87%
02:00 +13°C° 0 mm 2 mps 747 mmHg 89%
03:00 +13°C° 0 mm 2 mps 747 mmHg 89%
04:00 +13°C° 0 mm 2 mps 746 mmHg 90%
05:00 +13°C° 0 mm 2 mps 746 mmHg 91%
06:00 +12°C° 0 mm 3 mps 746 mmHg 86%
07:00 +13°C° 0 mm 3 mps 746 mmHg 81%
08:00 +14°C° 0 mm 3 mps 746 mmHg 76%
09:00 +17°C° 0 mm 4 mps 746 mmHg 69%
10:00 +18°C° 0 mm 4 mps 746 mmHg 61%
11:00 +20°C° 0 mm 4 mps 745 mmHg 54%
12:00 +21°C° 0 mm 5 mps 745 mmHg 51%
13:00 +22°C° 0 mm 5 mps 745 mmHg 49%
14:00 +23°C° 0 mm 5 mps 745 mmHg 47%
15:00 +22°C° 0 mm 5 mps 744 mmHg 51%
16:00 +21°C° 0 mm 4 mps 744 mmHg 56%
17:00 +20°C° 0 mm 4 mps 744 mmHg 60%
18:00 +19°C° 0 mm 4 mps 744 mmHg 61%
19:00 +17°C° 0 mm 4 mps 744 mmHg 62%
20:00 +15°C° 0 mm 4 mps 744 mmHg 63%
21:00 +15°C° 0 mm 4 mps 744 mmHg 64%
22:00 +14°C° 0 mm 3 mps 744 mmHg 64%
23:00 +14°C° 0 mm 3 mps 744 mmHg 65%

24 September, Thursday

Time Temperature Precipitation Wind Pressure Humidity
00:00 +13°C° 0 mm 3 mps 743 mmHg 67%
01:00 +13°C° 0 mm 3 mps 743 mmHg 69%
02:00 +13°C° 0 mm 3 mps 743 mmHg 71%
03:00 +13°C° 0 mm 3 mps 743 mmHg 72%
04:00 +12°C° 0 mm 3 mps 743 mmHg 72%
05:00 +12°C° 0 mm 4 mps 743 mmHg 72%
06:00 +13°C° 0 mm 4 mps 743 mmHg 70%
07:00 +13°C° 0 mm 4 mps 743 mmHg 67%
08:00 +14°C° 0 mm 4 mps 743 mmHg 64%
09:00 +15°C° 0 mm 5 mps 743 mmHg 61%
10:00 +17°C° 0 mm 5 mps 743 mmHg 58%
11:00 +20°C° 0 mm 5 mps 743 mmHg 54%
12:00 +21°C° 0 mm 5 mps 743 mmHg 54%
13:00 +22°C° 0 mm 5 mps 743 mmHg 53%
14:00 +23°C° 0 mm 5 mps 743 mmHg 53%
15:00 +22°C° 0 mm 4 mps 742 mmHg 58%
16:00 +22°C° 0 mm 4 mps 742 mmHg 62%
17:00 +21°C° 0 mm 3 mps 742 mmHg 66%
18:00 +20°C° 0 mm 3 mps 742 mmHg 70%
19:00 +19°C° 0 mm 3 mps 742 mmHg 74%
20:00 +17°C° 0 mm 3 mps 742 mmHg 77%
21:00 +17°C° 0.1 mm 3 mps 742 mmHg 80%
22:00 +17°C° 0.1 mm 2 mps 742 mmHg 83%
23:00 +16°C° 0.1 mm 2 mps 742 mmHg 86%

25 September, Friday

Time Temperature Precipitation Wind Pressure Humidity
00:00 +16°C° 0 mm 2 mps 742 mmHg 87%
01:00 +16°C° 0 mm 2 mps 742 mmHg 89%
02:00 +15°C° 0 mm 2 mps 742 mmHg 91%
03:00 +15°C° 0 mm 2 mps 742 mmHg 92%
04:00 +15°C° 0 mm 2 mps 742 mmHg 92%
05:00 +15°C° 0 mm 2 mps 741 mmHg 93%
06:00 +16°C° 0.1 mm 3 mps 741 mmHg 91%
07:00 +16°C° 0.1 mm 3 mps 741 mmHg 89%
08:00 +17°C° 0.1 mm 4 mps 741 mmHg 87%
09:00 +17°C° 0.1 mm 5 mps 740 mmHg 82%
10:00 +20°C° 0.1 mm 5 mps 740 mmHg 77%
11:00 +21°C° 0.1 mm 6 mps 740 mmHg 71%
12:00 +22°C° 0 mm 6 mps 739 mmHg 66%
13:00 +23°C° 0 mm 7 mps 739 mmHg 60%
14:00 +24°C° 0 mm 7 mps 738 mmHg 55%
15:00 +23°C° 0 mm 6 mps 738 mmHg 57%
16:00 +22°C° 0 mm 6 mps 737 mmHg 59%
17:00 +22°C° 0 mm 5 mps 737 mmHg 61%
18:00 +21°C° 0 mm 6 mps 736 mmHg 59%
19:00 +21°C° 0 mm 6 mps 736 mmHg 57%
20:00 +20°C° 0 mm 7 mps 736 mmHg 56%
21:00 +20°C° 0.3 mm 6 mps 735 mmHg 60%
22:00 +19°C° 0.3 mm 6 mps 735 mmHg 65%
23:00 +17°C° 0.3 mm 5 mps 735 mmHg 70%
Show more